Weather History for KBIL - October, 2013

Change the Weather History Date:

Tuesday, October 8, 2013

  Actual Average Record
Temperature  
Mean Temperature 52 °F 51 °F  
Max Temperature 60 °F 63 °F 87 °F (1980)
Min Temperature 43 °F 40 °F 17 °F (1985)
Degree Days  
Heating Degree Days 13 14  
Month to date heating degree days 137 103  
Since 1 July heating degree days 251 332  
Cooling Degree Days 0 0  
Month to date cooling degree days 0 0  
Year to date cooling degree days 840 633  
Growing Degree Days 2 (Base 50)    
Moisture  
Dew Point 34 °F    
Average Humidity 55    
Maximum Humidity 70    
Minimum Humidity 39    
Precipitation  
Precipitation T in 0.05 in 0.49 in (1997)
Month to date precipitation 1.42 0.37  
Year to date precipitation 13.23 11.72  
Snow  
Snow 0.00 in 0.10 in 2.40 in (1993)
Month to date snowfall 0.3 0.9  
Since 1 July snowfall 0.3 2.0  
Since 1 September snowfall 0.3 2.0  
Snow Depth 0.00 in    
Sea Level Pressure  
Sea Level Pressure 29.79 in    
Wind  
Wind Speed 7 mph (North)    
Max Wind Speed 21 mph    
Max Gust Speed 25 mph    
Visibility 10 miles    
Events      
T = Trace of Precipitation, MM = Missing Value Source: NWS Daily Summary

Daily Weather History Graph

Daily Weather History Graph

Search for Another Location

Airport or City:

Trip Planner

Search our weather history database for the weather conditions in past years. The results will help you decide how hot, cold, wet, or windy it might be!

Date:

Astronomy

Oct. 08, 2013 Rise Set
Actual Time 7:21 AM MDT 6:40 PM MDT
Civil Twilight 6:52 AM MDT 7:10 PM MDT
Nautical Twilight 6:17 AM MDT 7:44 PM MDT
Astronomical Twilight 5:42 AM MDT 8:19 PM MDT
Moon 11:31 AM MDT (10/8) 9:07 PM MDT (10/8)
Length of Visible Light 12h 18m
Length of Day
11h 18m
Waxing Crescent, 16% of the Moon is Illuminated
Oct 8
Waxing Crescent
Oct 11
First Quarter
Oct 18
Full
Oct 26
Last Quarter
Nov 3
New

Hourly Weather History & Observations

Time (MDT) Temp. Windchill Dew Point Humidity Pressure Visibility Wind Dir Wind Speed Gust Speed Precip Events Conditions
12:53 AM 57.9 °F - 37.9 °F 47% 29.65 in 10.0 mi WSW 13.8 mph - N/A   Clear
1:53 AM 55.0 °F - 37.9 °F 53% 29.68 in 10.0 mi North 3.5 mph - N/A   Clear
2:53 AM 50.0 °F - 36.0 °F 59% 29.71 in 10.0 mi North 9.2 mph - N/A   Clear
3:53 AM 46.9 °F - 34.0 °F 61% 29.72 in 10.0 mi NW 6.9 mph - N/A   Clear
4:53 AM 46.9 °F - 33.1 °F 59% 29.74 in 10.0 mi NW 4.6 mph - N/A   Clear
5:53 AM 50.0 °F - 32.0 °F 50% 29.74 in 10.0 mi Calm Calm - N/A   Clear
6:53 AM 46.9 °F - 34.0 °F 61% 29.77 in 10.0 mi SW 5.8 mph - N/A   Partly Cloudy
7:53 AM 48.9 °F - 30.9 °F 50% 29.78 in 10.0 mi North 8.1 mph - N/A   Scattered Clouds
8:53 AM 48.9 °F - 33.1 °F 54% 29.79 in 10.0 mi NNE 5.8 mph - N/A   Scattered Clouds
9:53 AM 53.1 °F - 30.9 °F 43% 29.78 in 10.0 mi NNE 6.9 mph - N/A   Partly Cloudy
10:53 AM 53.1 °F - 33.1 °F 47% 29.77 in 10.0 mi NNE 8.1 mph - N/A   Scattered Clouds
11:53 AM 54.0 °F - 34.0 °F 47% 29.75 in 10.0 mi NNE 10.4 mph - N/A   Partly Cloudy
12:53 PM 55.9 °F - 34.0 °F 44% 29.73 in 10.0 mi NE 11.5 mph - N/A   Partly Cloudy
1:53 PM 57.9 °F - 33.1 °F 39% 29.72 in 10.0 mi NNE 11.5 mph - N/A   Scattered Clouds
2:53 PM 59.0 °F - 35.1 °F 41% 29.73 in 10.0 mi ENE 11.5 mph - N/A   Mostly Cloudy
3:53 PM 57.9 °F - 34.0 °F 41% 29.76 in 10.0 mi NNE 5.8 mph - N/A   Mostly Cloudy
4:53 PM 57.9 °F - 34.0 °F 41% 29.77 in 10.0 mi East 3.5 mph - 0.00 in   Scattered Clouds
5:53 PM 57.9 °F - 32.0 °F 37% 29.80 in 10.0 mi Calm Calm - N/A   Mostly Cloudy
6:26 PM 54.0 °F - 36.0 °F 51% 29.85 in 10.0 mi NNW 17.3 mph - N/A   Mostly Cloudy
6:53 PM 52.0 °F - 35.1 °F 53% 29.86 in 10.0 mi North 15.0 mph - N/A   Scattered Clouds
7:53 PM 48.9 °F - 35.1 °F 59% 29.91 in 10.0 mi NNW 13.8 mph - N/A   Mostly Cloudy
8:53 PM 48.0 °F - 34.0 °F 58% 29.93 in 10.0 mi North 6.9 mph - N/A   Mostly Cloudy
9:53 PM 48.0 °F - 34.0 °F 58% 29.94 in 10.0 mi SSE 3.5 mph - N/A   Partly Cloudy
10:53 PM 46.9 °F - 34.0 °F 61% 29.95 in 10.0 mi SW 8.1 mph - N/A   Partly Cloudy
11:53 PM 44.1 °F 40.8 °F 35.1 °F 71% 29.97 in 10.0 mi SSW 5.8 mph - N/A   Clear